Location: Bramevaque
(42.9773°N, 0.5757°E)
Time: 05:02:35
(UTC+00:00)

Cosmos 2221 - Pass Details

Date: 15 May 2026
Orbit: 569 x 586 km, 82.5° (Epoch: 6 June)

Event Time Altitude Azimuth Distance (km) Brightness Sun altitude
Exits shadow 23:39:37 36° 314° (NW) 923 3.7 -27.9°
Drops below altitude 10° 23:42:44 10° 354° (N) 1,902 6.0 -27.9°
Sets 23:45:03 0° 2° (N) 2,809 7.2 -27.9°
